Regional Weather Roundup
Issued by NWS

Home | Current Version | Previous Version | Graphics & Text | Print | Product List | Glossary On
Versions: 1 2 3 4 5 6 7 8 9 10 11 12 13 14 15 16 17 18 19 20 21 22 23 24 25 26 27 28 29 30 31 32 33 34 35 36 37 38 39 40 41 42 43 44 45 46 47 48 49 50
000
ASUS43 KFSD 311002
RWRSD

WEATHER ROUNDUP FOR SOUTH DAKOTA
NATIONAL WEATHER SERVICE SIOUX FALLS SD
500 AM CDT FRI JUL 31 2015

NOTE: "FAIR" INDICATES FEW OR NO CLOUDS BELOW 12,000 FEET WITH NO
SIGNIFICANT WEATHER AND/OR OBSTRUCTIONS TO VISIBILITY.


SDZ001>005-009-010-012>017-311100-
NORTHWEST AND NORTH CENTRAL SOUTH DAKOTA

CITY           SKY/WX    TMP DP  RH WIND       PRES   REMARKS
BUFFALO          N/A     65  46  50 NW3       30.17S
FAITH            N/A     59  50  72 CALM      30.19S
MOBRIDGE       CLEAR     58  55  90 N7        30.15S
$$

SDZ012>016-024>037-041>051-057-063-072>074-311100-
SOUTHWEST AND SOUTH CENTRAL SOUTH DAKOTA

CITY           SKY/WX    TMP DP  RH WIND       PRES   REMARKS
RAPID CTY ARPT CLEAR     59  48  67 NW7       30.22F
PIERRE         CLEAR     59  52  77 NE3       30.14S
CUSTER         CLEAR     51  41  68 NW6       30.37S
ELLSWORTH AFB  CLEAR     60  49  67 W6        30.21F
PHILIP         CLEAR     55  53  93 W5        30.17S
PINE RIDGE     CLEAR     54  48  80 E3        30.22S
WINNER         FAIR      63  52  67 S8        30.16S
$$

SDZ004>011-016>023-039-040-311100-
NORTHEAST SOUTH DAKOTA

CITY           SKY/WX    TMP DP  RH WIND       PRES   REMARKS
ABERDEEN       CLEAR     53  50  89 SW3       30.15R
WATERTOWN      CLEAR     58  54  86 NE3       30.15R
BROOKINGS      CLEAR     59  55  88 N3        30.16S
SISSETON         N/A     58  52  80 NW8       30.11R
$$

SDZ017-020-022-023-036>040-048>070-311100-
SOUTHEAST SOUTH DAKOTA

CITY           SKY/WX    TMP DP  RH WIND       PRES   REMARKS
SIOUX FALLS    PTCLDY    61  58  90 CALM      30.14R
HURON          CLEAR     60  58  92 CALM      30.13R
MITCHELL       CLEAR     61  58  90 W3        30.13S
YANKTON          N/A    N/A N/A N/A MISG        N/A
$$

ABBREVIATIONS USED IN REMARKS
   TC - TEMPERATURE IN CELSIUS
  WCI - WIND CHILL INDEX
   HX - HEAT INDEX
  VSB - VISIBILITY



USA.gov is the U.S. government's official web portal to all federal, state and local government web resources and services.